Regional Weather Roundup
Issued by NWS

Home | Current Version | Previous Version | Graphics & Text | Print | Product List | Glossary On
Versions: 1 2 3 4 5 6 7 8 9 10 11 12 13 14 15 16 17 18 19 20 21 22 23 24 25 26 27 28 29 30 31 32 33 34 35 36 37 38 39 40 41 42 43 44 45 46 47 48 49 50
534
ASUS43 KLSX 302110
RWRMO

WEATHER SUMMARY FOR MISSOURI
NATIONAL WEATHER SERVICE SPRINGFIELD MO
400 PM CDT SUN APR 30 2017

NOTE: "FAIR" INDICATES FEW OR NO CLOUDS BELOW 12,000 FEET WITH NO
       SIGNIFICANT WEATHER AND/OR OBSTRUCTIONS TO VISIBILITY.
       CURRENT SKY AND/OR WEATHER CONDITIONS ARE NOT AVAILABLE FOR
       CHILLICOTHE AND FARMINGTON.

MOZ001>031-035>038-043-044-053-054-302200-
...NORTHERN AND WESTERN MISSOURI...

CITY           SKY/WX    TMP DP  RH WIND       PRES   REMARKS
KANSAS CTY INT PTSUNNY   58  47  66 S15       29.46F
KANSAS C DTWN  CLOUDY   N/A N/A N/A S18       29.47F
LEE`S SUMMIT   CLOUDY    57  48  72 S10       29.48F
ST JOSEPH      CLOUDY    56  54  93 SE5       29.47F
CHILLICOTHE      N/A     53  53 100 S5        29.50F
KIRKSVILLE     LGT RAIN  51  31  46 E17G23    29.46F

$$
MOZ066>068-077>081-088>096-101>105-302200-
...SOUTHWEST MISSOURI...

CITY           SKY/WX    TMP DP  RH WIND       PRES   REMARKS
SPRINGFIELD    PTSUNNY   62  47  57 SW25G37   29.52S
JOPLIN         MOSUNNY   57  39  51 S32G47    29.55S
BRANSON        MOSUNNY   63  46  55 S15G22    29.58S

$$
MOZ032>034-039>042-045>050-055>058-069>072-302200-
...CENTRAL MISSOURI...

CITY           SKY/WX    TMP DP  RH WIND       PRES   REMARKS
COLUMBIA       LGT RAIN  62  60  93 W9G21     29.44S
JEFFERSON CITY CLOUDY    77  64  64 S16G22    29.42F
ROLLA          CLOUDY    72  61  68 S22G28    29.46F
SEDALIA        CLOUDY    64  57  78 W16G22    29.48F
WHITEMAN AFB   PTSUNNY   62  54  74 SW16G24   29.47F
OSAGE BEACH    CLOUDY    72  56  57 S21       29.47S

$$
MOZ051-052-059>065-302200-
...EAST CENTRAL MISSOURI...

CITY           SKY/WX    TMP DP  RH WIND       PRES   REMARKS
ST LOUIS INTL  CLOUDY    71  65  81 SE23G29   29.54F
SPIRIT OF STL  CLOUDY    71  67  87 SE12G21     N/A
ST CHARLES     CLOUDY    69  66  90 SE16      29.53F

$$
MOZ072>076-082>087-097>100-106>115-302200-
...SOUTH CENTRAL AND SOUTHEAST MISSOURI...

CITY           SKY/WX    TMP DP  RH WIND       PRES   REMARKS
CAPE GIRARDEAU CLOUDY    71  66  84 S15       29.62F
FARMINGTON     CLOUDY    71  66  84 S21G28    29.56F
POPLAR BLUFF   CLOUDY    70  66  87 S23G29    29.60F
WEST PLAINS    PTSUNNY   67  55  65 SW16G32   29.58R

$$




USA.gov is the U.S. government's official web portal to all federal, state and local government web resources and services.